Weather History for Clinton-Sherman, OK

Change the Weather History Date:

Saturday, April 27, 2013

  Actual Average Record
Temperature  
Mean Temperature 62 °F -  
Max Temperature 72 °F 72 °F 89 °F (2003)
Min Temperature 51 °F 49 °F 41 °F (1998)
Degree Days  
Heating Degree Days 4    
Growing Degree Days 12 (Base 50)    
Moisture  
Dew Point 51 °F    
Average Humidity 82    
Maximum Humidity 100    
Minimum Humidity 43    
Precipitation  
Precipitation 0.00 in - - ()
Sea Level Pressure  
Sea Level Pressure 30.10 in    
Wind  
Wind Speed 14 mph (North)    
Max Wind Speed 21 mph    
Max Gust Speed 26 mph    
Visibility 8 miles    
Events Fog , Rain    
Averages and records for this station are not official NWS values.
T = Trace of Precipitation, MM = Missing Value Source: NWS Daily Summary

Daily Weather History Graph

Daily Weather History Graph

Search for Another Location

Airport:

Trip Planner

Search our weather history database for the weather conditions in past years. The results will help you decide how hot, cold, wet, or windy it might be!

Date:

Astronomy

Apr. 27, 2013 Rise Set
Actual Time 6:49 AM CDT 8:19 PM CDT
Civil Twilight 6:22 AM CDT 8:46 PM CDT
Nautical Twilight 5:50 AM CDT 9:19 PM CDT
Astronomical Twilight 5:16 AM CDT 9:53 PM CDT
Moon 10:46 PM CDT (4/27) 8:12 AM CDT (4/27)
Length of Visible Light 14h 24m
Length of Day
13h 30m
Waning Gibbous, 95% of the Moon is Illuminated
Apr 27
Waning Gibbous
May 2
Last Quarter
May 9
New
May 17
First Quarter
May 24
Full

Hourly Weather History & Observations

Time (CDT) Temp. Dew Point Humidity Pressure Visibility Wind Dir Wind Speed Gust Speed Precip Events Conditions
12:15 AM 53.6 °F 53.6 °F 100% 30.10 in 0.5 mi North 16.1 mph 23.0 mph N/A Fog Fog
12:46 AM 53.6 °F 53.6 °F 100% 30.12 in 0.8 mi NNW 20.7 mph 26.5 mph 0.00 in Rain Light Rain
12:53 AM 53.1 °F 53.1 °F 100% 30.09 in 0.8 mi North 19.6 mph 26.5 mph 0.00 in Rain Light Rain
1:24 AM 53.6 °F 51.8 °F 94% 30.13 in 1.8 mi NNW 16.1 mph 23.0 mph N/A   Overcast
1:28 AM 53.6 °F 51.8 °F 94% 30.13 in 3.0 mi NNW 16.1 mph 23.0 mph N/A   Overcast
1:43 AM 53.6 °F 51.8 °F 94% 30.14 in 2.5 mi NNW 15.0 mph - N/A   Overcast
1:50 AM 53.6 °F 51.8 °F 94% 30.14 in 3.0 mi NNW 17.3 mph 24.2 mph N/A   Overcast
1:53 AM 53.1 °F 52.0 °F 96% 30.11 in 2.5 mi NNW 15.0 mph 24.2 mph N/A   Overcast
2:08 AM 53.6 °F 51.8 °F 94% 30.13 in 3.0 mi North 13.8 mph 23.0 mph N/A   Overcast
2:53 AM 53.1 °F 51.1 °F 93% 30.08 in 7.0 mi North 12.7 mph - N/A   Overcast
3:53 AM 51.1 °F 50.0 °F 96% 30.07 in 6.0 mi North 13.8 mph 21.9 mph N/A   Overcast
4:53 AM 51.1 °F 50.0 °F 96% 30.09 in 6.0 mi North 11.5 mph 19.6 mph N/A   Overcast
5:48 AM 51.8 °F 50.0 °F 94% 30.13 in 8.0 mi NNW 15.0 mph - N/A   Overcast
5:53 AM 51.1 °F 50.0 °F 96% 30.09 in 8.0 mi North 12.7 mph - N/A   Overcast
6:02 AM 51.8 °F 50.0 °F 94% 30.13 in 9.0 mi North 11.5 mph - N/A   Overcast
6:51 AM 51.8 °F 48.2 °F 88% 30.14 in 10.0 mi North 13.8 mph 21.9 mph N/A   Overcast
6:53 AM 51.1 °F 48.9 °F 92% 30.11 in 10.0 mi North 19.6 mph 23.0 mph N/A   Overcast
7:53 AM 51.1 °F 48.9 °F 92% 30.14 in 10.0 mi North 13.8 mph - N/A   Overcast
8:53 AM 53.1 °F 48.9 °F 86% 30.16 in 10.0 mi North 15.0 mph - N/A   Overcast
9:18 AM 51.8 °F 48.2 °F 88% 30.19 in 10.0 mi North 13.8 mph - N/A   Scattered Clouds
9:35 AM 55.4 °F 50.0 °F 82% 30.18 in 10.0 mi North 11.5 mph - N/A   Mostly Cloudy
9:53 AM 55.0 °F 50.0 °F 83% 30.16 in 10.0 mi North 12.7 mph - N/A   Overcast
10:53 AM 57.9 °F 51.1 °F 78% 30.16 in 10.0 mi North 12.7 mph - N/A   Mostly Cloudy
11:53 AM 61.0 °F 53.1 °F 75% 30.16 in 10.0 mi NNW 11.5 mph - N/A   Mostly Cloudy
12:05 PM 60.8 °F 53.6 °F 77% 30.18 in 10.0 mi North 10.4 mph - N/A   Scattered Clouds
12:53 PM 63.0 °F 53.1 °F 70% 30.14 in 10.0 mi North 5.8 mph 16.1 mph N/A   Partly Cloudy
1:53 PM 66.9 °F 54.0 °F 63% 30.12 in 10.0 mi Variable 5.8 mph - N/A   Clear
2:53 PM 69.1 °F 53.1 °F 57% 30.10 in 10.0 mi North 8.1 mph - N/A   Clear
3:53 PM 70.0 °F 51.1 °F 51% 30.07 in 10.0 mi NE 10.4 mph - N/A   Clear
4:53 PM 72.0 °F 48.0 °F 43% 30.04 in 10.0 mi North 8.1 mph - N/A   Clear
5:53 PM 72.0 °F 48.9 °F 44% 30.03 in 10.0 mi North 5.8 mph - N/A   Clear
6:53 PM 70.0 °F 50.0 °F 49% 30.02 in 10.0 mi East 5.8 mph - N/A   Clear
7:53 PM 66.0 °F 51.1 °F 59% 30.01 in 10.0 mi ESE 6.9 mph - N/A   Clear
8:53 PM 60.1 °F 51.1 °F 72% 30.02 in 10.0 mi SE 8.1 mph - N/A   Clear
9:53 PM 60.1 °F 50.0 °F 69% 30.02 in 10.0 mi SE 9.2 mph - N/A   Clear
10:53 PM 55.9 °F 50.0 °F 80% 30.03 in 10.0 mi SSE 8.1 mph - N/A   Clear
11:53 PM 53.1 °F 48.9 °F 86% 30.01 in 10.0 mi SSE 6.9 mph - N/A   Clear